Regional Weather Roundup
Issued by NWS

Home | Current Version | Previous Version | Text Only | Print | Product List | Glossary Off
Versions: 1 2 3 4 5 6 7 8 9 10 11 12 13 14 15 16 17 18 19 20 21 22 23 24 25 26 27 28 29 30 31 32 33 34 35 36 37 38 39 40 41 42 43 44 45 46 47 48 49 50

000
ASUS43 KLOT 040200
RWRIL

ILLINOIS REGIONAL WEATHER ROUNDUP
NATIONAL WEATHER SERVICE CHICAGO/ROMEOVILLE IL
800 PM CST TUE MAR 03 2015

NOTE: "FAIR" INDICATES FEW OR NO CLOUDS BELOW 12,000 FEET WITH NO
SIGNIFICANT WEATHER AND/OR OBSTRUCTIONS TO VISIBILITY.

* THESE STATIONS ARE NOT UNDER NWS QUALITY CONTROL. THEY ALSO MAY NOT
  REPORT WEATHER SUCH AS PRECIPITATION OR FOG.

ILZ001-002-007-009-015-016-024-040300-
NORTHWEST ILLINOIS

CITY           SKY/WX    TMP DP  RH WIND       PRES   REMARKS
MOLINE         CLOUDY    33  25  72 W12       29.88R WCI  24
STERLING*      CLOUDY    32  27  80 W13       29.85R WCI  22
$$

ILZ003-004-008-010-011-017-018-040300-
NORTH CENTRAL ILLINOIS

CITY           SKY/WX    TMP DP  RH WIND       PRES   REMARKS
ROCKFORD       CLOUDY    31  22  69 W13       29.82R WCI  21
$$

ILZ005-006-012>014-019>023-040300-
NORTHEAST ILLINOIS

CITY           SKY/WX    TMP DP  RH WIND       PRES   REMARKS
CHICAGO-OHARE  CLOUDY    33  26  75 W10       29.79R WCI  25
CHICAGO-MIDWAY CLOUDY    35  28  75 W8        29.80R WCI  29
AURORA         CLOUDY    33  28  81 W12       29.81R WCI  24
LANSING*       CLOUDY    34  30  86 W10       29.81R WCI  26
WAUKEGAN       CLOUDY    31  24  75 W8        29.78R WCI  23
DUPAGE AIRPORT CLOUDY    32  27  81 W9        29.79R WCI  24
WHEELING       CLOUDY    33  26  75 NW8       29.80R WCI  26
NORTHERLY ISL    N/A     35  27  73 W5          N/A  WCI  31
$$

LMZ740>746-040300-
SOUTHERN LAKE MICHIGAN

STATION/POSITION SKY/WX   TEMP    WIND        PRES    VSBY  WAVE
                          AIR SEA DIR/SP/G                  HT/PER
                          (F)     (DEG/KT/KT) (MB)    (MI)  (FT/S)
WAUKEGAN HARBOR            32                   N/A
HARRISON CRIB              34     270/ 15/ 20   N/A
BURNHAM HARBOR             35     260/  9/ 16   N/A
CALUMET HARBOR             35     260/  4/ 11 1007.8R
MICHIGAN CITY              33     240/ 12/ 13   N/A
$$

ILZ025>027-034>036-040-047-049-050-058-095>099-040300-
WEST-CENTRAL ILLINOIS

CITY           SKY/WX    TMP DP  RH WIND       PRES   REMARKS
QUINCY         CLOUDY    35  30  82 NW7       29.92R WCI  29
$$

ILZ028>032-037-038-041>044-048-051>054-059>061-040300-
CENTRAL ILLINOIS

CITY           SKY/WX    TMP DP  RH WIND       PRES   REMARKS
DECATUR        CLOUDY    37  35  92 NW9       29.88R WCI  30
PEORIA         CLOUDY    36  27  69 NW8G21    29.89R WCI  30
SPRINGFIELD    CLOUDY    37  31  78 NW12      29.91R WCI  29
TAYLORVILLE    NOT AVBL
$$

ILZ033-039-045-046-055>057-062-063-040300-
EAST-CENTRAL ILLINOIS

CITY           SKY/WX    TMP DP  RH WIND       PRES   REMARKS
CHAMPAIGN      CLOUDY    35  33  92 W9        29.87R WCI  28
MATTOON        CLOUDY    35  35 100 NW9       29.87R FOG     WCI  28
$$

ILZ079-100>102-040300-
SOUTHWEST ILLINOIS

CITY           SKY/WX    TMP DP  RH WIND       PRES   REMARKS
ALTON          CLOUDY    41  37  87 NW6       29.88S
BELLEVILLE     CLOUDY    40  40 100 NW2       29.89R
CAHOKIA*       CLOUDY    43  39  86 NW9       29.89S
$$

ILZ064>066-069>071-074>076-080>082-084>086-088>090-092>094-040300-
SOUTH-CENTRAL ILLINOIS

CITY           SKY/WX    TMP DP  RH WIND       PRES   REMARKS
CARBONDALE     LGT RAIN  42  41  96 S5        29.90S VSB 3/4
MT. VERNON     CLOUDY    39  36  87 CALM      29.90R VSB 1/2
$$

ILZ067-068-072-073-078-083-087-091-040300-
SOUTHEAST ILLINOIS

CITY           SKY/WX    TMP DP  RH WIND       PRES   REMARKS
LAWRENCEVILLE  LGT RAIN  39  38  96 SW5       29.89S
$$

ABBREVIATIONS USED IN REMARKS
   TC - TEMPERATURE IN CELSIUS
  WCI - WIND CHILL INDEX
   HX - HEAT INDEX
  VSB - VISIBILITY
$$




USA.gov is the U.S. government's official web portal to all federal, state and local government web resources and services.